Find Starlink 30905

NORAD ID: 58356 Int'l Des: 2023-177 Owner: SPXS Country: US Constellation: starlink operational
LEOCIRCULAR

リアルタイム位置

3D地球を読み込み中...

Starlink 30905について

説明を読み込み中...

次回通過

Passes for default location (London). Set your location on the main map for personalized predictions.

高度履歴

Loading altitude history...

軌道要素

1 58356U 23177F 26127.10849897 .00007310 00000-0 27489-3 0 9995
2 58356 43.0035 20.4997 0000858 269.0718 91.0035 15.27580715137100
Epoch: May 7, 2026 • Age: 15 hours

現在のステータス

高度 491.9 km
速度 7.62 km/s
衛星直下点 -33.35°S, 164.27°W
打ち上げ日 Nov 18, 2023
運用期間 2.4 years
タイプ internet

技術仕様

分類 Payload
質量 730.00 kg
乾燥質量 700.00 kg
総質量 730.00 kg
長さ 0.30 m
直径 4.10 m
スパン 29.00 m
形状 Box + pan
製造者 SPXS
バスタイプ Starlink V2M
フェーズステータス In Orbit
所有者/国 SPXS/US

Most Searched